STARLINK-4005 (52686 NORAD) Tracking and Keplerian Element Data

This shows tracking and keplerian element data for the satellite.

Feedback or suggestion? Click here.




ElementValue
Catalog52686
NameSTARLINK-4005
Epoch Orbit130
Epoch Day192.91667824
Epoch Year2022
RAAN28.7816
Inclination53.2174
Eccentricity0.0001831
Argument of Perigee35.5815
Mean Anonmoly89.1025
Mean Motion15.53832431
Decay Rate-0.01059375
L11 52686U 22053AG 22192.91667824 -.01059375 00000+0 -17820-1 0 9998
L22 52686 53.2174 28.7816 0001831 35.5815 89.1025 15.53832431 1307

Live tracking and technical data element details for STARLINK-4005 (NORAD 52686). STARLINK-4005 can be tracked NOW for your location showing map with azimuth and elevation plus other details from your city location.

Track the satellite on the map from your city or location and see movement details for azimuth, elevation, latitude, longitude, range, height, and movement on the map or in text.







IsCatalogInMostPopularTable: catalog: 52686, numindb: 6
Update: records affected: 1



GetName: 52686 STARLINK-4005

Hit Count: updated at: Sun, 14 Aug 2022 00:16:50 GMT